Location: Lucerne Valley
(34.4439°N, 116.9669°E)
Time: 04:55:14
(UTC-07:00)

Vanguard 2 Rocket - All Passes

Search period start: 18 June 2018 00:00
Search period end: 28 June 2018 00:00
Orbit: 553 x 3327 km, 32.9° (Epoch: 17 June)

Date Brightness Start Highest point End Pass type
(mag) Time Alt. Az. Time Alt. Az. Time Alt. Az.
18 Jun - 00:35:17 10° W 00:49:11 71° SSW 00:56:44 10° ESE daylight
18 Jun - 02:54:39 10° W 03:02:06 26° SW 03:07:04 10° SSE daylight
18 Jun - 16:43:21 10° S 16:57:39 26° SE 17:11:38 10° E daylight
18 Jun - 18:55:05 10° SW 19:14:34 55° SSE 19:30:03 10° E daylight
18 Jun - 21:12:29 10° WSW 21:32:12 80° S 21:44:41 10° E daylight
18 Jun - 23:32:32 10° W 23:48:51 81° S 23:57:50 10° ESE daylight
19 Jun - 01:52:13 10° W 02:02:57 42° SSW 02:09:15 10° SE daylight
19 Jun - 15:46:11 10° SSE 15:56:31 17° SE 16:07:13 10° E daylight
19 Jun - 17:54:31 10° SSW 18:12:47 46° SSE 18:29:10 10° E daylight
19 Jun - 20:10:10 10° WSW 20:30:31 74° SSE 20:44:50 10° E daylight
19 Jun - 22:29:37 10° W 22:47:58 84° S 22:58:38 10° E daylight
20 Jun - 00:49:41 10° W 01:03:19 59° SSW 01:10:54 10° SE daylight
20 Jun - 03:10:17 10° W 03:15:34 17° SW 03:19:35 10° S daylight
20 Jun - 16:54:50 10° SSW 17:11:12 36° SE 17:27:28 10° E daylight
20 Jun - 19:08:27 10° SW 19:28:35 66° SSE 19:44:36 10° E daylight
20 Jun - 21:26:45 10° W 21:46:36 84° S 21:59:08 10° E daylight
20 Jun - 23:46:55 10° W 00:03:07 72° SSW 00:12:09 10° ESE daylight
21 Jun - 02:07:01 10° W 02:16:35 30° SW 02:22:41 10° SSE daylight
21 Jun - 15:56:13 10° S 16:09:56 26° SE 16:24:37 10° E daylight
21 Jun - 18:07:28 10° SW 18:26:35 57° SSE 18:43:52 10° E daylight
21 Jun - 20:24:14 10° WSW 20:44:48 81° S 20:59:17 10° E daylight
21 Jun - 22:44:01 10° W 23:02:21 81° S 23:13:02 10° ESE daylight
22 Jun - 01:04:10 10° W 01:17:11 45° SW 01:24:45 10° SE daylight
22 Jun - 14:59:22 10° SSE 15:09:04 17° SE 15:19:43 10° E daylight
22 Jun - 17:07:16 10° SSW 17:24:46 47° SE 17:42:31 10° E daylight
22 Jun - 19:22:15 10° WSW 19:42:42 76° SSE 19:59:02 10° E daylight
22 Jun - 21:41:08 10° W 22:01:01 85° S 22:13:33 10° E daylight
23 Jun - 00:01:19 10° W 00:17:12 61° SSW 00:26:16 10° SE daylight
23 Jun - 02:22:29 10° W 02:29:58 20° SW 02:35:20 10° S daylight
23 Jun - 16:07:57 10° SSW 16:23:18 37° SE 16:40:20 10° E daylight
23 Jun - 18:20:57 10° SW 18:40:31 68° SSE 18:58:21 10° E daylight
23 Jun - 20:38:31 10° W 20:59:11 85° S 21:13:43 10° E daylight
23 Jun - 22:58:24 10° W 23:16:36 73° SSW 23:27:19 10° ESE daylight
24 Jun - 01:18:55 10° W 01:30:45 33° SW 01:38:08 10° SSE daylight
24 Jun - 15:09:41 10° S 15:22:17 26° SE 15:37:01 10° E daylight
24 Jun - 17:20:23 10° SW 17:38:27 58° SSE 17:57:09 10° E daylight
24 Jun - 19:36:22 10° WSW 19:56:59 82° S 20:13:28 10° E daylight
24 Jun - 21:55:33 10° W 22:15:23 81° SSW 22:27:56 10° ESE daylight
25 Jun - 00:15:47 10° W 00:31:01 48° SW 00:40:03 10° SE daylight
25 Jun - 02:40:04 10° WSW 02:43:09 11° SW 02:45:50 10° SW daylight
25 Jun - 14:13:11 10° SSE 14:21:44 16° SE 14:31:38 10° E daylight
25 Jun - 16:20:35 10° SSW 16:36:44 48° SE 16:55:19 10° E daylight
25 Jun - 18:34:49 10° WSW 18:54:36 77° SSE 19:12:47 10° E daylight
25 Jun - 20:52:55 10° W 21:13:35 85° S 21:28:08 10° E daylight
25 Jun - 23:12:47 10° W 23:30:38 62° SSW 23:41:22 10° SE daylight
26 Jun - 01:34:16 10° W 01:44:02 23° SW 01:50:49 10° S daylight
26 Jun - 15:21:37 10° SSW 15:35:30 36° SE 15:52:40 10° E daylight
26 Jun - 17:33:58 10° SW 17:52:19 69° SSE 18:11:37 10° E daylight
26 Jun - 19:50:41 10° W 20:11:21 85° S 20:27:54 10° E daylight
26 Jun - 22:09:56 10° W 22:29:36 73° SSW 22:42:11 10° ESE daylight
27 Jun - 00:30:29 10° W 00:44:29 36° SW 00:53:24 10° SSE daylight
27 Jun - 14:23:40 10° S 14:34:50 25° SE 14:48:55 10° E daylight
27 Jun - 16:33:49 10° SW 16:50:20 59° SSE 17:09:54 10° ENE daylight
27 Jun - 18:49:00 10° WSW 19:08:52 83° S 19:27:12 10° E daylight
27 Jun - 21:07:19 10° W 21:27:56 81° SSW 21:42:29 10° ESE daylight
27 Jun - 23:27:14 10° WNW 23:44:23 50° SW 23:55:06 10° SE daylight
